Location: Karcze
(52.0945°N, 22.4786°E)
Time: 22:22:15
(UTC+00:00)

A-11 Canister half - Pass Details

Date: 10 August 2021
Orbit: 1515 x 1685 km, 47.2° (Epoch: 19 September)

Event Time Altitude Azimuth Distance (km) Brightness Sun altitude
Rises 15:30:16 0° 259° (W) 4,771 13.1 22.0°
Reaches altitude 10° 15:33:20 10° 257° (WSW) 3,809 13.0 21.6°
Maximum altitude 15:42:57 68° 178° (S) 1,749 9.7 20.1°
Drops below altitude 10° 15:52:54 10° 98° (E) 3,930 10.6 18.6°
Sets 15:56:06 0° 96° (E) 4,929 11.0 18.1°
